This is the latest recevied weather packets stored in our database for station/object KE0PRS. If no packets are shown the sender has not sent any weather packets the latest 10 day(s).
| Time | Temp. | Humidity | Pressure | Rain* | Wind** | Luminosity | Snow |
|---|---|---|---|---|---|---|---|
| 1788019078 | 31.67° C | 43% | 1015.1 hPa | 0 mm | - | 491 W/m² | - |
| 1788018773 | 31.11° C | 44% | 1015.1 hPa | 0 mm | - | 482 W/m² | - |
| 1788018468 | 31.11° C | 44% | 1015.2 hPa | 0 mm | - | 468 W/m² | - |
| 1788018167 | 30.56° C | 45% | 1015.2 hPa | 0 mm | - | 451 W/m² | - |
| 1788017863 | 30° C | 45% | 1015.3 hPa | 0 mm | - | 406 W/m² | - |
| 1788017559 | 30° C | 45% | 1015.2 hPa | 0 mm | - | 426 W/m² | - |
| 1788017256 | 29.44° C | 46% | 1015.7 hPa | 0 mm | - | 412 W/m² | - |
| 1788016952 | 29.44° C | 48% | 1015.6 hPa | 0 mm | - | 386 W/m² | - |
| 1788016650 | 28.89° C | 48% | 1015.6 hPa | 0 mm | - | 368 W/m² | - |
| 1788016349 | 28.33° C | 49% | 1015.7 hPa | 0 mm | - | 338 W/m² | - |
| 1788016044 | 28.33° C | 49% | 1015.8 hPa | 0 mm | - | 246 W/m² | - |
| 1788015743 | 27.78° C | 49% | 1015.7 hPa | 0 mm | - | 313 W/m² | - |
| 1788015439 | 27.78° C | 48% | 1015.8 hPa | 0 mm | - | 255 W/m² | - |
| 1788015134 | 27.78° C | 49% | 1015.8 hPa | 0 mm | - | 254 W/m² | - |
| 1788014831 | 27.22° C | 49% | 1015.8 hPa | 0 mm | - | 175 W/m² | - |
| 1788014532 | 27.22° C | 49% | 1015.8 hPa | 0 mm | - | 233 W/m² | - |
| 1788014227 | 27.22° C | 49% | 1016 hPa | 0 mm | - | 186 W/m² | - |
| 1788013926 | 26.67° C | 50% | 1016 hPa | 0 mm | - | 266 W/m² | - |
| 1788013621 | 26.67° C | 50% | 1015.9 hPa | 0 mm | - | 260 W/m² | - |
| 1788013315 | 26.11° C | 51% | 1015.8 hPa | 0 mm | - | 252 W/m² | - |
| 1788013016 | 25.56° C | 51% | 1015.9 hPa | 0 mm | - | 227 W/m² | - |
| 1788012715 | 25° C | 52% | 1016.1 hPa | 0 mm | - | 222 W/m² | - |
| 1788012411 | 24.44° C | 52% | 1016 hPa | 0 mm | - | 161 W/m² | - |
| 1788012110 | 24.44° C | 52% | 1016 hPa | 0 mm | - | 197 W/m² | - |
| 1788011805 | 23.89° C | 52% | 1016.1 hPa | 0 mm | - | 122 W/m² | - |
* Rain latest hour (hover to see other rain measurements)
** Current wind speed in m/s (hover to see current wind gust speed)